owner,sensor,date,latitude,longitude,relative_humidity,qcFlag 
DISL,ioos:station:DISL:PPTA:1,2014-11-01T00:00:00Z,30.2791,-87.5561,50.47,1111122 
DISL,ioos:station:DISL:PPTA:1,2014-11-01T00:30:00Z,30.2791,-87.5561,49.45,1111122 
DISL,ioos:station:DISL:PPTA:1,2014-11-01T01:00:00Z,30.2791,-87.5561,50.51,1111122 
DISL,ioos:station:DISL:PPTA:1,2014-11-01T01:30:00Z,30.2791,-87.5561,54.16,1111122 
DISL,ioos:station:DISL:PPTA:1,2014-11-01T02:00:00Z,30.2791,-87.5561,53.46,1111122 
DISL,ioos:station:DISL:PPTA:1,2014-11-01T02:30:00Z,30.2791,-87.5561,54.86,1111122 
DISL,ioos:station:DISL:PPTA:1,2014-11-01T03:00:00Z,30.2791,-87.5561,57.08,1111122 
DISL,ioos:station:DISL:PPTA:1,2014-11-01T03:30:00Z,30.2791,-87.5561,58.45,1111122 
DISL,ioos:station:DISL:PPTA:1,2014-11-01T04:00:00Z,30.2791,-87.5561,61.08,1111122 
DISL,ioos:station:DISL:PPTA:1,2014-11-01T04:30:00Z,30.2791,-87.5561,57.55,1111122 
DISL,ioos:station:DISL:PPTA:1,2014-11-01T05:00:00Z,30.2791,-87.5561,53.55,1111122 
DISL,ioos:station:DISL:PPTA:1,2014-11-01T05:30:00Z,30.2791,-87.5561,48.37,1111122 
DISL,ioos:station:DISL:PPTA:1,2014-11-01T06:00:00Z,30.2791,-87.5561,56.78,1111122 
DISL,ioos:station:DISL:PPTA:1,2014-11-01T06:30:00Z,30.2791,-87.5561,60.1,1111122 
DISL,ioos:station:DISL:PPTA:1,2014-11-01T07:00:00Z,30.2791,-87.5561,61.2,1111122 
DISL,ioos:station:DISL:PPTA:1,2014-11-01T07:30:00Z,30.2791,-87.5561,52.46,1111122 
DISL,ioos:station:DISL:PPTA:1,2014-11-01T08:00:00Z,30.2791,-87.5561,52.77,1111122 
DISL,ioos:station:DISL:PPTA:1,2014-11-01T08:30:00Z,30.2791,-87.5561,50.62,1111122 
DISL,ioos:station:DISL:PPTA:1,2014-11-01T09:00:00Z,30.2791,-87.5561,59.59,1111122 
DISL,ioos:station:DISL:PPTA:1,2014-11-01T09:30:00Z,30.2791,-87.5561,51.73,1111122 
DISL,ioos:station:DISL:PPTA:1,2014-11-01T10:00:00Z,30.2791,-87.5561,53.83,1111122 
DISL,ioos:station:DISL:PPTA:1,2014-11-01T10:30:00Z,30.2791,-87.5561,50.42,1111122 
DISL,ioos:station:DISL:PPTA:1,2014-11-01T11:00:00Z,30.2791,-87.5561,54.76,1111122 
DISL,ioos:station:DISL:PPTA:1,2014-11-01T11:30:00Z,30.2791,-87.5561,56.71,1111122 
DISL,ioos:station:DISL:PPTA:1,2014-11-01T12:00:00Z,30.2791,-87.5561,58.98,1111122 
DISL,ioos:station:DISL:PPTA:1,2014-11-01T12:30:00Z,30.2791,-87.5561,56.93,1111122 
DISL,ioos:station:DISL:PPTA:1,2014-11-01T13:00:00Z,30.2791,-87.5561,56.07,1111122 
DISL,ioos:station:DISL:PPTA:1,2014-11-01T13:30:00Z,30.2791,-87.5561,60.2,1111122 
DISL,ioos:station:DISL:PPTA:1,2014-11-01T14:00:00Z,30.2791,-87.5561,52.57,1111122 
DISL,ioos:station:DISL:PPTA:1,2014-11-01T14:30:00Z,30.2791,-87.5561,50.75,1111122 
DISL,ioos:station:DISL:PPTA:1,2014-11-01T15:00:00Z,30.2791,-87.5561,51.97,1111122 
DISL,ioos:station:DISL:PPTA:1,2014-11-01T15:30:00Z,30.2791,-87.5561,49.43,1111122 
DISL,ioos:station:DISL:PPTA:1,2014-11-01T16:00:00Z,30.2791,-87.5561,41.87,1111122 
DISL,ioos:station:DISL:PPTA:1,2014-11-01T16:30:00Z,30.2791,-87.5561,37.42,1111122 
DISL,ioos:station:DISL:PPTA:1,2014-11-01T17:00:00Z,30.2791,-87.5561,37.97,1111122 
DISL,ioos:station:DISL:PPTA:1,2014-11-01T17:30:00Z,30.2791,-87.5561,34.99,1111122 
DISL,ioos:station:DISL:PPTA:1,2014-11-01T18:00:00Z,30.2791,-87.5561,31.88,1111122 
DISL,ioos:station:DISL:PPTA:1,2014-11-01T18:30:00Z,30.2791,-87.5561,33.79,1111122 
DISL,ioos:station:DISL:PPTA:1,2014-11-01T19:00:00Z,30.2791,-87.5561,33.62,1111122 
DISL,ioos:station:DISL:PPTA:1,2014-11-01T19:30:00Z,30.2791,-87.5561,35.46,1111122 
DISL,ioos:station:DISL:PPTA:1,2014-11-01T20:00:00Z,30.2791,-87.5561,29.14,1111122 
DISL,ioos:station:DISL:PPTA:1,2014-11-01T20:30:00Z,30.2791,-87.5561,26.03,1111122 
DISL,ioos:station:DISL:PPTA:1,2014-11-01T21:00:00Z,30.2791,-87.5561,29.69,1111122 
DISL,ioos:station:DISL:PPTA:1,2014-11-01T21:30:00Z,30.2791,-87.5561,25.9,1111122 
DISL,ioos:station:DISL:PPTA:1,2014-11-01T22:00:00Z,30.2791,-87.5561,27.95,1111122 
DISL,ioos:station:DISL:PPTA:1,2014-11-01T22:30:00Z,30.2791,-87.5561,31.29,1111122 
DISL,ioos:station:DISL:PPTA:1,2014-11-01T23:00:00Z,30.2791,-87.5561,38.57,1111122 
DISL,ioos:station:DISL:PPTA:1,2014-11-01T23:30:00Z,30.2791,-87.5561,33.93,1111122 
DISL,ioos:station:DISL:PPTA:1,2014-11-02T00:00:00Z,30.2791,-87.5561,40.63,1111122 
DISL,ioos:station:DISL:PPTA:1,2014-11-02T00:30:00Z,30.2791,-87.5561,43.61,1111122 
DISL,ioos:station:DISL:PPTA:1,2014-11-02T01:00:00Z,30.2791,-87.5561,46.25,1111122 
DISL,ioos:station:DISL:PPTA:1,2014-11-02T01:30:00Z,30.2791,-87.5561,42.32,1111122 
DISL,ioos:station:DISL:PPTA:1,2014-11-02T02:00:00Z,30.2791,-87.5561,49.7,1111122 
DISL,ioos:station:DISL:PPTA:1,2014-11-02T02:30:00Z,30.2791,-87.5561,48.89,1111122 
DISL,ioos:station:DISL:PPTA:1,2014-11-02T03:00:00Z,30.2791,-87.5561,52.96,1111122 
DISL,ioos:station:DISL:PPTA:1,2014-11-02T03:30:00Z,30.2791,-87.5561,52.72,1111122 
DISL,ioos:station:DISL:PPTA:1,2014-11-02T04:00:00Z,30.2791,-87.5561,55.36,1111122 
DISL,ioos:station:DISL:PPTA:1,2014-11-02T04:30:00Z,30.2791,-87.5561,54.57,1111122 
DISL,ioos:station:DISL:PPTA:1,2014-11-02T05:00:00Z,30.2791,-87.5561,56.15,1111122 
DISL,ioos:station:DISL:PPTA:1,2014-11-02T05:30:00Z,30.2791,-87.5561,61.08,1111122 
DISL,ioos:station:DISL:PPTA:1,2014-11-02T06:00:00Z,30.2791,-87.5561,61.01,1111122 
DISL,ioos:station:DISL:PPTA:1,2014-11-02T06:30:00Z,30.2791,-87.5561,64.13,1111122 
DISL,ioos:station:DISL:PPTA:1,2014-11-02T07:00:00Z,30.2791,-87.5561,63.31,1111122 
DISL,ioos:station:DISL:PPTA:1,2014-11-02T07:30:00Z,30.2791,-87.5561,67.38,1111122 
DISL,ioos:station:DISL:PPTA:1,2014-11-02T08:00:00Z,30.2791,-87.5561,70.16,1111122 
DISL,ioos:station:DISL:PPTA:1,2014-11-02T08:30:00Z,30.2791,-87.5561,71.73,1111122 
DISL,ioos:station:DISL:PPTA:1,2014-11-02T09:00:00Z,30.2791,-87.5561,73.37,1111122 
DISL,ioos:station:DISL:PPTA:1,2014-11-02T09:30:00Z,30.2791,-87.5561,72.29,1111122 
DISL,ioos:station:DISL:PPTA:1,2014-11-02T10:00:00Z,30.2791,-87.5561,78.41,1111122 
DISL,ioos:station:DISL:PPTA:1,2014-11-02T10:30:00Z,30.2791,-87.5561,79.04,1111122 
DISL,ioos:station:DISL:PPTA:1,2014-11-02T11:00:00Z,30.2791,-87.5561,77.81,1111122 
DISL,ioos:station:DISL:PPTA:1,2014-11-02T11:30:00Z,30.2791,-87.5561,79.35,1111122 
DISL,ioos:station:DISL:PPTA:1,2014-11-02T12:00:00Z,30.2791,-87.5561,80.6,1111122 
DISL,ioos:station:DISL:PPTA:1,2014-11-02T12:30:00Z,30.2791,-87.5561,80.2,1111122 
DISL,ioos:station:DISL:PPTA:1,2014-11-02T13:00:00Z,30.2791,-87.5561,78.84,1111122 
DISL,ioos:station:DISL:PPTA:1,2014-11-02T13:30:00Z,30.2791,-87.5561,75.34,1111122 
DISL,ioos:station:DISL:PPTA:1,2014-11-02T14:00:00Z,30.2791,-87.5561,67.8,1111122 
DISL,ioos:station:DISL:PPTA:1,2014-11-02T14:30:00Z,30.2791,-87.5561,67.58,1111122 
DISL,ioos:station:DISL:PPTA:1,2014-11-02T15:00:00Z,30.2791,-87.5561,61.44,1111122 
DISL,ioos:station:DISL:PPTA:1,2014-11-02T15:30:00Z,30.2791,-87.5561,59.1,1111122 
DISL,ioos:station:DISL:PPTA:1,2014-11-02T16:00:00Z,30.2791,-87.5561,54.65,1111122 
DISL,ioos:station:DISL:PPTA:1,2014-11-02T16:30:00Z,30.2791,-87.5561,47.01,1111122 
DISL,ioos:station:DISL:PPTA:1,2014-11-02T17:00:00Z,30.2791,-87.5561,43.62,1111122 
DISL,ioos:station:DISL:PPTA:1,2014-11-02T17:30:00Z,30.2791,-87.5561,40.4,1111122 
DISL,ioos:station:DISL:PPTA:1,2014-11-02T18:00:00Z,30.2791,-87.5561,38.97,1111122 
DISL,ioos:station:DISL:PPTA:1,2014-11-02T18:30:00Z,30.2791,-87.5561,32.21,1111122 
DISL,ioos:station:DISL:PPTA:1,2014-11-02T19:00:00Z,30.2791,-87.5561,33.74,1111122 
DISL,ioos:station:DISL:PPTA:1,2014-11-02T19:30:00Z,30.2791,-87.5561,31.05,1111122 
DISL,ioos:station:DISL:PPTA:1,2014-11-02T20:00:00Z,30.2791,-87.5561,30.94,1111122 
DISL,ioos:station:DISL:PPTA:1,2014-11-02T20:30:00Z,30.2791,-87.5561,24.28,1111122 
DISL,ioos:station:DISL:PPTA:1,2014-11-02T21:00:00Z,30.2791,-87.5561,26.78,1111122 
DISL,ioos:station:DISL:PPTA:1,2014-11-02T21:30:00Z,30.2791,-87.5561,23.57,1111122 
DISL,ioos:station:DISL:PPTA:1,2014-11-02T22:00:00Z,30.2791,-87.5561,27.66,1111122 
DISL,ioos:station:DISL:PPTA:1,2014-11-02T22:30:00Z,30.2791,-87.5561,28.07,1111122 
DISL,ioos:station:DISL:PPTA:1,2014-11-02T23:00:00Z,30.2791,-87.5561,27.29,1111122 
DISL,ioos:station:DISL:PPTA:1,2014-11-02T23:30:00Z,30.2791,-87.5561,33.91,1111122 
DISL,ioos:station:DISL:PPTA:1,2014-11-03T00:00:00Z,30.2791,-87.5561,43.45,1111122 
DISL,ioos:station:DISL:PPTA:1,2014-11-03T00:30:00Z,30.2791,-87.5561,43.22,1111122 
DISL,ioos:station:DISL:PPTA:1,2014-11-03T01:00:00Z,30.2791,-87.5561,43.7,1111122 
DISL,ioos:station:DISL:PPTA:1,2014-11-03T01:30:00Z,30.2791,-87.5561,53.03,1111122 
DISL,ioos:station:DISL:PPTA:1,2014-11-03T02:00:00Z,30.2791,-87.5561,49.11,1111122 
DISL,ioos:station:DISL:PPTA:1,2014-11-03T02:30:00Z,30.2791,-87.5561,44.29,1111122 
DISL,ioos:station:DISL:PPTA:1,2014-11-03T03:00:00Z,30.2791,-87.5561,46.24,1111122 
DISL,ioos:station:DISL:PPTA:1,2014-11-03T03:30:00Z,30.2791,-87.5561,48.91,1111122 
DISL,ioos:station:DISL:PPTA:1,2014-11-03T04:00:00Z,30.2791,-87.5561,49.35,1111122 
DISL,ioos:station:DISL:PPTA:1,2014-11-03T04:30:00Z,30.2791,-87.5561,54.48,1111122 
DISL,ioos:station:DISL:PPTA:1,2014-11-03T05:00:00Z,30.2791,-87.5561,50.51,1111122 
DISL,ioos:station:DISL:PPTA:1,2014-11-03T05:30:00Z,30.2791,-87.5561,54.68,1111122 
DISL,ioos:station:DISL:PPTA:1,2014-11-03T06:00:00Z,30.2791,-87.5561,55.89,1111122 
DISL,ioos:station:DISL:PPTA:1,2014-11-03T06:30:00Z,30.2791,-87.5561,55.58,1111122 
DISL,ioos:station:DISL:PPTA:1,2014-11-03T07:00:00Z,30.2791,-87.5561,58.62,1111122 
DISL,ioos:station:DISL:PPTA:1,2014-11-03T07:30:00Z,30.2791,-87.5561,58.14,1111122 
DISL,ioos:station:DISL:PPTA:1,2014-11-03T08:00:00Z,30.2791,-87.5561,60.58,1111122 
DISL,ioos:station:DISL:PPTA:1,2014-11-03T08:30:00Z,30.2791,-87.5561,61.03,1111122 
DISL,ioos:station:DISL:PPTA:1,2014-11-03T09:00:00Z,30.2791,-87.5561,57.03,1111122 
DISL,ioos:station:DISL:PPTA:1,2014-11-03T09:30:00Z,30.2791,-87.5561,64.24,1111122 
DISL,ioos:station:DISL:PPTA:1,2014-11-03T10:00:00Z,30.2791,-87.5561,64.17,1111122 
DISL,ioos:station:DISL:PPTA:1,2014-11-03T10:30:00Z,30.2791,-87.5561,64.88,1111122 
DISL,ioos:station:DISL:PPTA:1,2014-11-03T11:00:00Z,30.2791,-87.5561,65.74,1111122 
DISL,ioos:station:DISL:PPTA:1,2014-11-03T11:30:00Z,30.2791,-87.5561,67.97,1111122 
DISL,ioos:station:DISL:PPTA:1,2014-11-03T12:00:00Z,30.2791,-87.5561,63.28,1111122 
DISL,ioos:station:DISL:PPTA:1,2014-11-03T12:30:00Z,30.2791,-87.5561,59.56,1111122 
DISL,ioos:station:DISL:PPTA:1,2014-11-03T13:00:00Z,30.2791,-87.5561,62.01,1111122 
DISL,ioos:station:DISL:PPTA:1,2014-11-03T13:30:00Z,30.2791,-87.5561,60.32,1111122 
DISL,ioos:station:DISL:PPTA:1,2014-11-03T14:00:00Z,30.2791,-87.5561,57.31,1111122 
DISL,ioos:station:DISL:PPTA:1,2014-11-03T14:30:00Z,30.2791,-87.5561,62.28,1111122 
DISL,ioos:station:DISL:PPTA:1,2014-11-03T15:00:00Z,30.2791,-87.5561,57.14,1111122 
DISL,ioos:station:DISL:PPTA:1,2014-11-03T15:30:00Z,30.2791,-87.5561,59.59,1111122 
DISL,ioos:station:DISL:PPTA:1,2014-11-03T16:00:00Z,30.2791,-87.5561,62.92,1111122 
DISL,ioos:station:DISL:PPTA:1,2014-11-03T16:30:00Z,30.2791,-87.5561,61.41,1111122 
DISL,ioos:station:DISL:PPTA:1,2014-11-03T17:00:00Z,30.2791,-87.5561,60.89,1111122 
DISL,ioos:station:DISL:PPTA:1,2014-11-03T17:30:00Z,30.2791,-87.5561,62.46,1111122 
DISL,ioos:station:DISL:PPTA:1,2014-11-03T18:00:00Z,30.2791,-87.5561,62.56,1111122 
DISL,ioos:station:DISL:PPTA:1,2014-11-03T18:30:00Z,30.2791,-87.5561,62.25,1111122 
DISL,ioos:station:DISL:PPTA:1,2014-11-03T19:00:00Z,30.2791,-87.5561,62.42,1111122 
DISL,ioos:station:DISL:PPTA:1,2014-11-03T19:30:00Z,30.2791,-87.5561,63.32,1111122 
DISL,ioos:station:DISL:PPTA:1,2014-11-03T20:00:00Z,30.2791,-87.5561,62.71,1111122 
DISL,ioos:station:DISL:PPTA:1,2014-11-03T20:30:00Z,30.2791,-87.5561,61.82,1111122 
DISL,ioos:station:DISL:PPTA:1,2014-11-03T21:00:00Z,30.2791,-87.5561,59.03,1111122 
DISL,ioos:station:DISL:PPTA:1,2014-11-03T21:30:00Z,30.2791,-87.5561,60.53,1111122 
DISL,ioos:station:DISL:PPTA:1,2014-11-03T22:00:00Z,30.2791,-87.5561,62.82,1111122 
DISL,ioos:station:DISL:PPTA:1,2014-11-03T22:30:00Z,30.2791,-87.5561,62.68,1111122 
DISL,ioos:station:DISL:PPTA:1,2014-11-03T23:00:00Z,30.2791,-87.5561,61.97,1111122 
DISL,ioos:station:DISL:PPTA:1,2014-11-03T23:30:00Z,30.2791,-87.5561,69.55,1111122 
DISL,ioos:station:DISL:PPTA:1,2014-11-04T00:00:00Z,30.2791,-87.5561,72.04,1111122 
DISL,ioos:station:DISL:PPTA:1,2014-11-04T00:30:00Z,30.2791,-87.5561,73.11,1111122 
DISL,ioos:station:DISL:PPTA:1,2014-11-04T01:00:00Z,30.2791,-87.5561,71.72,1111122 
DISL,ioos:station:DISL:PPTA:1,2014-11-04T01:30:00Z,30.2791,-87.5561,60.45,1111122 
DISL,ioos:station:DISL:PPTA:1,2014-11-04T02:00:00Z,30.2791,-87.5561,52.59,1111122 
DISL,ioos:station:DISL:PPTA:1,2014-11-04T02:30:00Z,30.2791,-87.5561,68.64,1111122 
DISL,ioos:station:DISL:PPTA:1,2014-11-04T03:00:00Z,30.2791,-87.5561,72.54,1111122 
DISL,ioos:station:DISL:PPTA:1,2014-11-04T03:30:00Z,30.2791,-87.5561,75.65,1111122 
DISL,ioos:station:DISL:PPTA:1,2014-11-04T04:00:00Z,30.2791,-87.5561,79.2,1111122 
DISL,ioos:station:DISL:PPTA:1,2014-11-04T04:30:00Z,30.2791,-87.5561,80.8,1111122 
DISL,ioos:station:DISL:PPTA:1,2014-11-04T05:00:00Z,30.2791,-87.5561,78.09,1111122 
DISL,ioos:station:DISL:PPTA:1,2014-11-04T05:30:00Z,30.2791,-87.5561,77.76,1111122 
DISL,ioos:station:DISL:PPTA:1,2014-11-04T06:00:00Z,30.2791,-87.5561,78.03,1111122 
DISL,ioos:station:DISL:PPTA:1,2014-11-04T06:30:00Z,30.2791,-87.5561,80.2,1111122 
DISL,ioos:station:DISL:PPTA:1,2014-11-04T07:00:00Z,30.2791,-87.5561,73.11,1111122 
DISL,ioos:station:DISL:PPTA:1,2014-11-04T07:30:00Z,30.2791,-87.5561,64.06,1111122 
DISL,ioos:station:DISL:PPTA:1,2014-11-04T08:00:00Z,30.2791,-87.5561,66.92,1111122 
DISL,ioos:station:DISL:PPTA:1,2014-11-04T08:30:00Z,30.2791,-87.5561,69.38,1111122 
DISL,ioos:station:DISL:PPTA:1,2014-11-04T09:00:00Z,30.2791,-87.5561,72.12,1111122 
DISL,ioos:station:DISL:PPTA:1,2014-11-04T09:30:00Z,30.2791,-87.5561,71.57,1111122 
DISL,ioos:station:DISL:PPTA:1,2014-11-04T10:00:00Z,30.2791,-87.5561,73.86,1111122 
DISL,ioos:station:DISL:PPTA:1,2014-11-04T10:30:00Z,30.2791,-87.5561,75.26,1111122 
DISL,ioos:station:DISL:PPTA:1,2014-11-04T11:00:00Z,30.2791,-87.5561,76.08,1111122 
DISL,ioos:station:DISL:PPTA:1,2014-11-04T11:30:00Z,30.2791,-87.5561,77.93,1111122 
DISL,ioos:station:DISL:PPTA:1,2014-11-04T12:00:00Z,30.2791,-87.5561,76.43,1111122 
DISL,ioos:station:DISL:PPTA:1,2014-11-04T12:30:00Z,30.2791,-87.5561,74.07,1111122 
DISL,ioos:station:DISL:PPTA:1,2014-11-04T13:00:00Z,30.2791,-87.5561,72.8,1111122 
DISL,ioos:station:DISL:PPTA:1,2014-11-04T13:30:00Z,30.2791,-87.5561,70.37,1111122 
DISL,ioos:station:DISL:PPTA:1,2014-11-04T14:00:00Z,30.2791,-87.5561,69.6,1111122 
DISL,ioos:station:DISL:PPTA:1,2014-11-04T14:30:00Z,30.2791,-87.5561,72.9,1111122 
DISL,ioos:station:DISL:PPTA:1,2014-11-04T15:00:00Z,30.2791,-87.5561,75.51,1111122 
DISL,ioos:station:DISL:PPTA:1,2014-11-04T15:30:00Z,30.2791,-87.5561,73.72,1111122 
DISL,ioos:station:DISL:PPTA:1,2014-11-04T16:00:00Z,30.2791,-87.5561,75.12,1111122 
DISL,ioos:station:DISL:PPTA:1,2014-11-04T16:30:00Z,30.2791,-87.5561,72.24,1111122 
DISL,ioos:station:DISL:PPTA:1,2014-11-04T17:00:00Z,30.2791,-87.5561,72.67,1111122 
DISL,ioos:station:DISL:PPTA:1,2014-11-04T17:30:00Z,30.2791,-87.5561,74.86,1111122 
DISL,ioos:station:DISL:PPTA:1,2014-11-04T18:00:00Z,30.2791,-87.5561,77.31,1111122 
DISL,ioos:station:DISL:PPTA:1,2014-11-04T18:30:00Z,30.2791,-87.5561,80.4,1111122 
DISL,ioos:station:DISL:PPTA:1,2014-11-04T19:00:00Z,30.2791,-87.5561,80.6,1111122 
DISL,ioos:station:DISL:PPTA:1,2014-11-04T19:30:00Z,30.2791,-87.5561,82.2,1111122 
DISL,ioos:station:DISL:PPTA:1,2014-11-04T20:00:00Z,30.2791,-87.5561,83.0,1111122 
DISL,ioos:station:DISL:PPTA:1,2014-11-04T20:30:00Z,30.2791,-87.5561,83.5,1111122 
DISL,ioos:station:DISL:PPTA:1,2014-11-04T21:00:00Z,30.2791,-87.5561,80.9,1111122 
DISL,ioos:station:DISL:PPTA:1,2014-11-04T21:30:00Z,30.2791,-87.5561,80.0,1111122 
DISL,ioos:station:DISL:PPTA:1,2014-11-04T22:00:00Z,30.2791,-87.5561,80.3,1111122 
DISL,ioos:station:DISL:PPTA:1,2014-11-04T22:30:00Z,30.2791,-87.5561,81.0,1111122 
DISL,ioos:station:DISL:PPTA:1,2014-11-04T23:00:00Z,30.2791,-87.5561,83.7,1111122 
DISL,ioos:station:DISL:PPTA:1,2014-11-04T23:30:00Z,30.2791,-87.5561,85.0,1111122 
DISL,ioos:station:DISL:PPTA:1,2014-11-05T00:00:00Z,30.2791,-87.5561,88.0,1111122 
DISL,ioos:station:DISL:PPTA:1,2014-11-05T00:30:00Z,30.2791,-87.5561,80.6,1111122 
DISL,ioos:station:DISL:PPTA:1,2014-11-05T01:00:00Z,30.2791,-87.5561,74.74,1111122 
DISL,ioos:station:DISL:PPTA:1,2014-11-05T01:30:00Z,30.2791,-87.5561,75.15,1111122 
DISL,ioos:station:DISL:PPTA:1,2014-11-05T02:00:00Z,30.2791,-87.5561,76.11,1111122 
DISL,ioos:station:DISL:PPTA:1,2014-11-05T02:30:00Z,30.2791,-87.5561,78.12,1111122 
DISL,ioos:station:DISL:PPTA:1,2014-11-05T03:00:00Z,30.2791,-87.5561,79.35,1111122 
DISL,ioos:station:DISL:PPTA:1,2014-11-05T03:30:00Z,30.2791,-87.5561,79.66,1111122 
DISL,ioos:station:DISL:PPTA:1,2014-11-05T04:00:00Z,30.2791,-87.5561,80.6,1111122 
DISL,ioos:station:DISL:PPTA:1,2014-11-05T04:30:00Z,30.2791,-87.5561,78.7,1111122 
DISL,ioos:station:DISL:PPTA:1,2014-11-05T05:00:00Z,30.2791,-87.5561,77.13,1111122 
DISL,ioos:station:DISL:PPTA:1,2014-11-05T05:30:00Z,30.2791,-87.5561,77.24,1111122 
DISL,ioos:station:DISL:PPTA:1,2014-11-05T06:00:00Z,30.2791,-87.5561,78.36,1111122 
DISL,ioos:station:DISL:PPTA:1,2014-11-05T06:30:00Z,30.2791,-87.5561,78.39,1111122 
DISL,ioos:station:DISL:PPTA:1,2014-11-05T07:00:00Z,30.2791,-87.5561,79.14,1111122 
DISL,ioos:station:DISL:PPTA:1,2014-11-05T07:30:00Z,30.2791,-87.5561,79.55,1111122 
DISL,ioos:station:DISL:PPTA:1,2014-11-05T08:00:00Z,30.2791,-87.5561,78.05,1111122 
DISL,ioos:station:DISL:PPTA:1,2014-11-05T08:30:00Z,30.2791,-87.5561,79.35,1111122 
DISL,ioos:station:DISL:PPTA:1,2014-11-05T09:00:00Z,30.2791,-87.5561,79.01,1111122 
DISL,ioos:station:DISL:PPTA:1,2014-11-05T09:30:00Z,30.2791,-87.5561,77.2,1111122 
DISL,ioos:station:DISL:PPTA:1,2014-11-05T10:00:00Z,30.2791,-87.5561,78.7,1111122 
DISL,ioos:station:DISL:PPTA:1,2014-11-05T10:30:00Z,30.2791,-87.5561,77.37,1111122 
DISL,ioos:station:DISL:PPTA:1,2014-11-05T11:00:00Z,30.2791,-87.5561,77.61,1111122 
DISL,ioos:station:DISL:PPTA:1,2014-11-05T11:30:00Z,30.2791,-87.5561,79.93,1111122 
DISL,ioos:station:DISL:PPTA:1,2014-11-05T12:00:00Z,30.2791,-87.5561,79.76,1111122 
DISL,ioos:station:DISL:PPTA:1,2014-11-05T12:30:00Z,30.2791,-87.5561,80.2,1111122 
DISL,ioos:station:DISL:PPTA:1,2014-11-05T13:00:00Z,30.2791,-87.5561,77.81,1111122 
DISL,ioos:station:DISL:PPTA:1,2014-11-05T13:30:00Z,30.2791,-87.5561,79.57,1111122 
DISL,ioos:station:DISL:PPTA:1,2014-11-05T14:00:00Z,30.2791,-87.5561,84.9,1111122 
DISL,ioos:station:DISL:PPTA:1,2014-11-05T14:30:00Z,30.2791,-87.5561,74.34,1111122 
DISL,ioos:station:DISL:PPTA:1,2014-11-05T15:00:00Z,30.2791,-87.5561,70.71,1111122 
DISL,ioos:station:DISL:PPTA:1,2014-11-05T15:30:00Z,30.2791,-87.5561,69.75,1111122 
DISL,ioos:station:DISL:PPTA:1,2014-11-05T16:00:00Z,30.2791,-87.5561,68.23,1111122 
DISL,ioos:station:DISL:PPTA:1,2014-11-05T16:30:00Z,30.2791,-87.5561,70.3,1111122 
DISL,ioos:station:DISL:PPTA:1,2014-11-05T17:00:00Z,30.2791,-87.5561,71.05,1111122 
DISL,ioos:station:DISL:PPTA:1,2014-11-05T17:30:00Z,30.2791,-87.5561,70.06,1111122 
DISL,ioos:station:DISL:PPTA:1,2014-11-05T18:00:00Z,30.2791,-87.5561,71.63,1111122 
DISL,ioos:station:DISL:PPTA:1,2014-11-05T18:30:00Z,30.2791,-87.5561,73.88,1111122 
DISL,ioos:station:DISL:PPTA:1,2014-11-05T19:00:00Z,30.2791,-87.5561,77.67,1111122 
DISL,ioos:station:DISL:PPTA:1,2014-11-05T19:30:00Z,30.2791,-87.5561,78.86,1111122 
DISL,ioos:station:DISL:PPTA:1,2014-11-05T20:00:00Z,30.2791,-87.5561,80.4,1111122 
DISL,ioos:station:DISL:PPTA:1,2014-11-05T20:30:00Z,30.2791,-87.5561,79.67,1111122 
DISL,ioos:station:DISL:PPTA:1,2014-11-05T21:00:00Z,30.2791,-87.5561,81.3,1111122 
DISL,ioos:station:DISL:PPTA:1,2014-11-05T21:30:00Z,30.2791,-87.5561,83.4,1111122 
DISL,ioos:station:DISL:PPTA:1,2014-11-05T22:00:00Z,30.2791,-87.5561,83.8,1111122 
DISL,ioos:station:DISL:PPTA:1,2014-11-05T22:30:00Z,30.2791,-87.5561,85.0,1111122 
DISL,ioos:station:DISL:PPTA:1,2014-11-05T23:00:00Z,30.2791,-87.5561,85.2,1111122 
DISL,ioos:station:DISL:PPTA:1,2014-11-05T23:30:00Z,30.2791,-87.5561,89.5,1111122 
DISL,ioos:station:DISL:PPTA:1,2014-11-06T00:00:00Z,30.2791,-87.5561,91.0,1111122 
DISL,ioos:station:DISL:PPTA:1,2014-11-06T00:30:00Z,30.2791,-87.5561,92.7,1111122 
DISL,ioos:station:DISL:PPTA:1,2014-11-06T01:00:00Z,30.2791,-87.5561,91.7,1111122 
DISL,ioos:station:DISL:PPTA:1,2014-11-06T01:30:00Z,30.2791,-87.5561,91.5,1111122 
DISL,ioos:station:DISL:PPTA:1,2014-11-06T02:00:00Z,30.2791,-87.5561,85.6,1111122 
DISL,ioos:station:DISL:PPTA:1,2014-11-06T02:30:00Z,30.2791,-87.5561,85.6,1111122 
DISL,ioos:station:DISL:PPTA:1,2014-11-06T03:00:00Z,30.2791,-87.5561,85.5,1111122 
DISL,ioos:station:DISL:PPTA:1,2014-11-06T03:30:00Z,30.2791,-87.5561,86.0,1111122 
DISL,ioos:station:DISL:PPTA:1,2014-11-06T04:00:00Z,30.2791,-87.5561,85.1,1111122 
DISL,ioos:station:DISL:PPTA:1,2014-11-06T04:30:00Z,30.2791,-87.5561,86.3,1111122 
DISL,ioos:station:DISL:PPTA:1,2014-11-06T05:00:00Z,30.2791,-87.5561,84.3,1111122 
DISL,ioos:station:DISL:PPTA:1,2014-11-06T05:30:00Z,30.2791,-87.5561,81.5,1111122 
DISL,ioos:station:DISL:PPTA:1,2014-11-06T06:00:00Z,30.2791,-87.5561,78.89,1111122 
DISL,ioos:station:DISL:PPTA:1,2014-11-06T06:30:00Z,30.2791,-87.5561,80.0,1111122 
DISL,ioos:station:DISL:PPTA:1,2014-11-06T07:00:00Z,30.2791,-87.5561,84.4,1111122 
DISL,ioos:station:DISL:PPTA:1,2014-11-06T07:30:00Z,30.2791,-87.5561,87.5,1111122 
DISL,ioos:station:DISL:PPTA:1,2014-11-06T08:00:00Z,30.2791,-87.5561,89.3,1111122 
DISL,ioos:station:DISL:PPTA:1,2014-11-06T08:30:00Z,30.2791,-87.5561,90.8,1111122 
DISL,ioos:station:DISL:PPTA:1,2014-11-06T09:00:00Z,30.2791,-87.5561,91.8,1111122 
DISL,ioos:station:DISL:PPTA:1,2014-11-06T09:30:00Z,30.2791,-87.5561,91.2,1111122 
DISL,ioos:station:DISL:PPTA:1,2014-11-06T10:00:00Z,30.2791,-87.5561,91.5,1111122 
DISL,ioos:station:DISL:PPTA:1,2014-11-06T10:30:00Z,30.2791,-87.5561,91.3,1111122 
DISL,ioos:station:DISL:PPTA:1,2014-11-06T11:00:00Z,30.2791,-87.5561,92.2,1111122 
DISL,ioos:station:DISL:PPTA:1,2014-11-06T11:30:00Z,30.2791,-87.5561,92.7,1111122 
DISL,ioos:station:DISL:PPTA:1,2014-11-06T12:00:00Z,30.2791,-87.5561,93.2,1111122 
DISL,ioos:station:DISL:PPTA:1,2014-11-06T12:30:00Z,30.2791,-87.5561,93.9,1111122 
DISL,ioos:station:DISL:PPTA:1,2014-11-06T13:00:00Z,30.2791,-87.5561,93.9,1111122 
DISL,ioos:station:DISL:PPTA:1,2014-11-06T13:30:00Z,30.2791,-87.5561,93.4,1111122 
DISL,ioos:station:DISL:PPTA:1,2014-11-06T14:00:00Z,30.2791,-87.5561,92.7,1111122 
DISL,ioos:station:DISL:PPTA:1,2014-11-06T14:30:00Z,30.2791,-87.5561,90.9,1111122 
DISL,ioos:station:DISL:PPTA:1,2014-11-06T15:00:00Z,30.2791,-87.5561,88.1,1111122 
DISL,ioos:station:DISL:PPTA:1,2014-11-06T15:30:00Z,30.2791,-87.5561,84.3,1111122 
DISL,ioos:station:DISL:PPTA:1,2014-11-06T16:00:00Z,30.2791,-87.5561,81.6,1111122 
DISL,ioos:station:DISL:PPTA:1,2014-11-06T16:30:00Z,30.2791,-87.5561,79.81,1111122 
DISL,ioos:station:DISL:PPTA:1,2014-11-06T17:00:00Z,30.2791,-87.5561,80.3,1111122 
DISL,ioos:station:DISL:PPTA:1,2014-11-06T17:30:00Z,30.2791,-87.5561,75.13,1111122 
DISL,ioos:station:DISL:PPTA:1,2014-11-06T18:00:00Z,30.2791,-87.5561,71.07,1111122 
DISL,ioos:station:DISL:PPTA:1,2014-11-06T18:30:00Z,30.2791,-87.5561,66.52,1111122 
DISL,ioos:station:DISL:PPTA:1,2014-11-06T19:00:00Z,30.2791,-87.5561,67.81,1111122 
DISL,ioos:station:DISL:PPTA:1,2014-11-06T19:30:00Z,30.2791,-87.5561,61.03,1111122 
DISL,ioos:station:DISL:PPTA:1,2014-11-06T20:00:00Z,30.2791,-87.5561,62.09,1111122 
DISL,ioos:station:DISL:PPTA:1,2014-11-06T20:30:00Z,30.2791,-87.5561,69.83,1111122 
DISL,ioos:station:DISL:PPTA:1,2014-11-06T21:00:00Z,30.2791,-87.5561,73.6,1111122 
DISL,ioos:station:DISL:PPTA:1,2014-11-06T21:30:00Z,30.2791,-87.5561,75.03,1111122 
DISL,ioos:station:DISL:PPTA:1,2014-11-06T22:00:00Z,30.2791,-87.5561,75.03,1111122 
DISL,ioos:station:DISL:PPTA:1,2014-11-06T22:30:00Z,30.2791,-87.5561,76.24,1111122 
DISL,ioos:station:DISL:PPTA:1,2014-11-06T23:00:00Z,30.2791,-87.5561,79.46,1111122 
DISL,ioos:station:DISL:PPTA:1,2014-11-06T23:30:00Z,30.2791,-87.5561,78.03,1111122 
DISL,ioos:station:DISL:PPTA:1,2014-11-07T00:00:00Z,30.2791,-87.5561,77.31,1111122 